DW7229 Weather Reports


time (UTC)temp
C
wind
direction
speed
KPH
gust
KPH
rain 1hr
cm
rain 24hr
cm
rain mn
cm
humidity
%
barometer
mb
20260505041522 13 193 0.0 3.2 0.00 0.00 0.00 51 1009.5
20260505040519 13 158 1.6 4.8 0.00 0.00 0.00 51 1009.4
20260505035517 14 163 1.6 8.0 0.00 0.00 0.00 50 1009.2
20260505034540 14 226 1.6 8.0 0.00 0.00 0.00 49 1009.3
20260505033523 14 203 0.0 1.6 0.00 0.00 0.00 49 1009.3
20260505032526 15 0.0 1.6 0.00 0.00 0.00 48 1009.2
20260505031530 15 203 1.6 4.8 0.00 0.00 0.00 47 1009.2
20260505030535 15 191 3.2 8.0 0.00 0.00 0.00 47 1009.3
20260505025538 15 216 0.0 9.7 0.00 0.00 0.00 46 1009.2
20260505024522 15 159 1.6 4.8 0.00 0.00 0.00 46 1009.3
20260505023525 15 0.0 0.0 0.00 0.00 0.00 45 1009.2
20260505022528 16 168 0.0 4.8 0.00 0.00 0.00 45 1009.3
20260505021532 16 172 1.6 8.0 0.00 0.00 0.00 44 1009.2
20260505020517 16 191 1.6 9.7 0.00 0.00 0.00 44 1009.1
20260505015520 16 173 1.6 8.0 0.00 0.00 0.00 43 1009.2
20260505014523 16 189 1.6 8.0 0.00 0.00 0.00 42 1009.0
20260505013527 17 324 1.6 8.0 0.00 0.00 0.00 42 1008.6
20260505012551 17 225 1.6 6.4 0.00 0.00 0.00 41 1008.5
20260505011515 17 178 1.6 8.0 0.00 0.00 0.00 40 1008.3
20260505010518 17 253 4.8 16.1 0.00 0.00 0.00 40 1008.1
20260505005522 17 198 6.4 16.1 0.00 0.00 0.00 39 1007.9
20260505004525 18 207 6.4 14.5 0.00 0.00 0.00 38 1007.6
20260505003522 18 216 3.2 12.9 0.00 0.00 0.00 37 1007.2
20260505002520 18 213 4.8 11.3 0.00 0.00 0.00 36 1006.8
20260505001517 18 259 1.6 6.4 0.00 0.00 0.00 34 1006.7
20260505000520 19 225 1.6 8.0 0.00 0.00 0.00 33 1006.5
20260504235524 19 248 0.0 3.2 0.00 0.00 0.00 33 1006.4
20260504234527 20 270 0.0 3.2 0.00 0.00 0.00 31 1006.2
20260504233530 20 225 0.0 3.2 0.00 0.00 0.00 30 1006.2
20260504232515 20 248 0.0 4.8 0.00 0.00 0.00 30 1006.0
20260504231518 21 219 3.2 6.4 0.00 0.00 0.00 29 1005.9
20260504230522 21 227 1.6 6.4 0.00 0.00 0.00 28 1005.8
20260504225525 22 180 1.6 6.4 0.00 0.00 0.00 28 1005.7
20260504224528 22 225 0.0 4.8 0.00 0.00 0.00 27 1005.5
20260504223532 22 285 3.2 9.7 0.00 0.00 0.00 26 1005.6
20260504222517 23 212 1.6 9.7 0.00 0.00 0.00 26 1005.5
20260504221520 22 272 4.8 8.0 0.00 0.00 0.00 26 1005.6
20260504220523 23 259 6.4 12.9 0.00 0.00 0.00 25 1005.6
20260504215547 23 261 8.0 19.3 0.00 0.00 0.00 24 1005.5
20260504214530 23 210 6.4 9.7 0.00 0.00 0.00 24 1005.5
20260504213516 23 240 6.4 14.5 0.00 0.00 0.00 23 1005.5
20260504212519 23 232 8.0 17.7 0.00 0.00 0.00 24 1005.5
20260504211542 23 233 6.4 12.9 0.00 0.00 0.00 24 1005.5
20260504210526 23 252 1.6 4.8 0.00 0.00 0.00 25 1005.5
20260504205523 24 180 4.8 9.7 0.00 0.00 0.00 24 1005.3
20260504204520 23 241 6.4 14.5 0.00 0.00 0.00 24 1005.5
20260504203517 23 243 8.0 20.9 0.00 0.00 0.00 23 1005.4
20260504202520 24 226 8.0 17.7 0.00 0.00 0.00 23 1005.4
20260504201524 23 219 8.0 14.5 0.00 0.00 0.00 23 1005.5
20260504200527 23 252 9.7 12.9 0.00 0.00 0.00 24 1005.6
20260504195531 23 257 8.0 19.3 0.00 0.00 0.00 23 1005.6
20260504194516 23 262 9.7 19.3 0.00 0.00 0.00 23 1005.5
20260504193519 23 262 11.3 20.9 0.00 0.00 0.00 23 1005.6
20260504192522 23 308 8.0 12.9 0.00 0.00 0.00 23 1005.6
20260504191525 22 223 11.3 20.9 0.00 0.00 0.00 24 1005.6
20260504190529 23 207 9.7 16.1 0.00 0.00 0.00 23 1005.6
20260504185532 23 249 8.0 20.9 0.00 0.00 0.00 23 1005.8
20260504184517 22 206 8.0 14.5 0.00 0.00 0.00 23 1006.0
20260504183520 22 281 11.3 19.3 0.00 0.00 0.00 24 1006.1
20260504182524 22 193 6.4 11.3 0.00 0.00 0.00 24 1006.3
20260504181527 22 228 12.9 19.3 0.00 0.00 0.00 24 1006.3
20260504180531 22 289 11.3 16.1 0.00 0.00 0.00 24 1006.2
20260504175516 22 228 9.7 19.3 0.00 0.00 0.00 25 1006.2
20260504174519 22 256 11.3 19.3 0.00 0.00 0.00 25 1006.3
20260504173522 21 229 11.3 17.7 0.00 0.00 0.00 25 1006.7
20260504172526 21 241 11.3 19.3 0.00 0.00 0.00 25 1006.5
20260504171543 21 279 8.0 17.7 0.00 0.00 0.00 26 1006.6
20260504170520 21 298 16.1 30.6 0.00 0.00 0.00 25 1006.7
20260504150517 18 180 0.0 1.6 0.00 0.00 0.00 32 1007.7
20260504140519 17 214 3.2 11.3 0.00 0.00 0.00 36 1008.4
20260504130515 13 231 4.8 12.9 0.00 0.00 0.00 42 1009.0
20260504110524 8 0.0 0.0 0.00 0.00 0.00 53 1009.7
20260504100545 6 0.0 0.0 0.00 0.00 0.00 56 1009.5
20260504081525 6 0.0 0.0 0.00 0.00 0.00 56 1009.4
20260504080528 6 0.0 0.0 0.00 0.00 0.00 55 1009.4
20260504050516 2 0.0 0.0 0.00 0.00 0.00 71 1009.4
20260504045519 2 0.0 0.0 0.00 0.00 0.00 71 1009.4
20260504044522 1 0.0 0.0 0.00 0.00 0.00 71 1009.5
20260504043525 2 0.0 0.0 0.00 0.00 0.00 71 1009.4
20260504042529 2 0.0 0.0 0.00 0.00 0.00 71 1009.4